Flag for Germany Weather past 2 weeks in Ellwangen (Jagst), Baden-Württemberg, Germany

Now
65 °F

Scattered clouds.


Feels Like: 65 °F
Forecast: 46 / 70 °F
Wind: 3 mph from East

Location: Stoetten


UV Index: 3 (Moderate)

Visibility: 44 mi


Pressure: 29.99 "Hg

Humidity: 42%

Dew point: 42 °F

Location of Ellwangen (Jagst)Location

Historic Weather in Ellwangen (Jagst)

°F

Ellwangen (Jagst) temperature yesterday

Maximum temperature yesterday: 63 °F (at 5:00 PM)
Minimum temperature yesterday: 50 °F (at 2:00 AM)
Average temperature yesterday: 55 °F

Past Weeks' High & Low Weather Summary

 TemperatureHumidityPressure
High65 °F (Apr 24, 1:00 PM)100% (Apr 15, 8:00 AM)30.41 "Hg (Apr 15, 8:00 AM)
Low30 °F (Apr 16, 7:00 AM)30% (Apr 17, 6:00 PM)29.61 "Hg (Apr 21, 2:00 PM)
Average46 °F72%30.03 "Hg
* Reported Apr 9 1:00 PM — Apr 24 1:00 PM, Ellwangen (Jagst), Weather by CustomWeather, © 2014

Note: Actual official high and low records may vary slightly from our data, if they occured in-between our weather recording intervals... More about our weather records

Advertising

Historic Weather Conditions — Data for Previous 24 hours

 ConditionsComfort  
Time TempWeatherWind HumidityBarometerVisibility
1:00 PM
Apr 24
65 °FScattered clouds.5 mph43%30.00 "Hg43 mi
12:00 PM63 °FPassing clouds.5 mph48%30.03 "Hg37 mi
11:00 AM61 °FPassing clouds.2 mph60%30.05 "Hg34 mi
10:00 AM58 °FPassing clouds.3 mph64%30.07 "Hg31 mi
9:00 AM57 °FPassing clouds.2 mph61%30.07 "Hg31 mi
8:00 AM54 °FPassing clouds.3 mph69%30.08 "Hg28 mi
7:00 AM51 °FPassing clouds.3 mph71%30.09 "Hg28 mi
6:00 AM50 °FPassing clouds.3 mph70%30.09 "Hg25 mi
5:00 AM51 °FClear.3 mph69%30.09 "Hg22 mi
4:00 AM51 °FClear.3 mph64%30.09 "Hg28 mi
3:00 AM53 °FClear.3 mph61%30.08 "Hg28 mi
2:00 AM53 °FClear.3 mph60%30.09 "Hg34 mi
1:00 AM53 °FClear.3 mph63%30.10 "Hg25 mi
12:00 AM53 °FClear.2 mph66%30.10 "Hg22 mi
11:00 PM
Apr 23
54 °FClear.2 mph63%30.09 "Hg25 mi
10:00 PM54 °FClear.3 mph59%30.09 "Hg31 mi
9:00 PM55 °FPassing clouds.3 mph59%30.07 "Hg47 mi
8:00 PM58 °FPassing clouds.3 mph56%30.04 "Hg47 mi
7:00 PM61 °FScattered clouds.3 mph51%30.02 "Hg47 mi
6:00 PM63 °FScattered clouds.2 mph53%30.01 "Hg47 mi
5:00 PM63 °FScattered clouds.3 mph47%30.02 "Hg47 mi
4:00 PM62 °FPartly sunny.3 mph59%30.04 "Hg47 mi
3:00 PM55 °FOvercast.2 mph72%30.09 "Hg6 mi
2:00 PM54 °FSprinkles. Partly sunny.3 mph71%30.11 "Hg47 mi
Weather by CustomWeather, © 2014

See weather overview